Mineral Wells, TX

1:38 AM CDT on May 30, 2017 (GMT -0500)
Mineral Wells

Weather History for KMWL - September, 2013

Change the Weather History Date:

Thursday, September 26, 2013

  Actual Average Record
Temperature  
Mean Temperature 78 °F -  
Max Temperature 93 °F 84 °F 96 °F (2005)
Min Temperature 64 °F 59 °F 42 °F (2000)
Cooling Degree Days 12    
Growing Degree Days 28 (Base 50)    
Moisture  
Dew Point 55 °F    
Average Humidity 49    
Maximum Humidity 75    
Minimum Humidity 27    
Precipitation  
Precipitation 0.00 in - - ()
Sea Level Pressure  
Sea Level Pressure 29.79 in    
Wind  
Wind Speed 8 mph (SSE)    
Max Wind Speed 17 mph    
Max Gust Speed 24 mph    
Visibility 10 miles    
Events      
Averages and records for this station are not official NWS values.
T = Trace of Precipitation, MM = Missing Value Source: NWS Daily Summary

Daily Weather History Graph

Daily Weather History Graph

Search for Another Location

Airport or City:

Trip Planner

Search our weather history database for the weather conditions in past years. The results will help you decide how hot, cold, wet, or windy it might be!

Date:

Astronomy

Sep. 26, 2013 Rise Set
Actual Time 7:23 AM CDT 7:23 PM CDT
Civil Twilight 6:58 AM CDT 7:47 PM CDT
Nautical Twilight 6:29 AM CDT 8:16 PM CDT
Astronomical Twilight 6:01 AM CDT 8:45 PM CDT
Moon No Moon Rise 2:00 PM CDT (9/26)
Length of Visible Light 12h 49m
Length of Day
11h 59m
Waning Gibbous, 54% of the Moon is Illuminated
Sep 26
Waning Gibbous
Sep 26
Last Quarter
Oct 4
New
Oct 11
First Quarter
Oct 18
Full

Hourly Weather History & Observations

Time (CDT) Temp. Heat Index Dew Point Humidity Pressure Visibility Wind Dir Wind Speed Gust Speed Precip Events Conditions
12:53 AM 71.1 °F - 57.9 °F 63% 29.75 in 10.0 mi SE 8.1 mph - N/A   Clear
1:53 AM 70.0 °F - 57.0 °F 63% 29.75 in 10.0 mi SE 9.2 mph - N/A   Clear
2:53 AM 69.1 °F - 55.9 °F 63% 29.75 in 10.0 mi SE 6.9 mph - N/A   Clear
3:53 AM 66.9 °F - 55.9 °F 68% 29.75 in 10.0 mi SE 9.2 mph - N/A   Clear
4:53 AM 64.9 °F - 55.0 °F 70% 29.75 in 10.0 mi SE 5.8 mph - N/A   Clear
5:53 AM 64.9 °F - 55.0 °F 70% 29.76 in 10.0 mi SE 5.8 mph - N/A   Clear
6:53 AM 64.0 °F - 55.9 °F 75% 29.79 in 10.0 mi Calm Calm - N/A   Clear
7:53 AM 64.9 °F - 55.9 °F 73% 29.81 in 10.0 mi ESE 5.8 mph - N/A   Clear
8:53 AM 71.1 °F - 57.9 °F 63% 29.83 in 10.0 mi SE 4.6 mph - N/A   Clear
9:53 AM 78.1 °F - 59.0 °F 52% 29.84 in 10.0 mi Variable 5.8 mph - N/A   Clear
10:53 AM 84.0 °F 83.5 °F 57.9 °F 41% 29.85 in 10.0 mi South 8.1 mph 16.1 mph N/A   Clear
11:53 AM 88.0 °F 86.5 °F 55.9 °F 34% 29.84 in 10.0 mi South 12.7 mph 24.2 mph N/A   Clear
12:53 PM 90.0 °F 88.1 °F 55.9 °F 31% 29.83 in 10.0 mi South 11.5 mph 20.7 mph N/A   Clear
1:53 PM 91.0 °F 89.2 °F 55.9 °F 30% 29.81 in 10.0 mi South 15.0 mph 23.0 mph N/A   Clear
2:53 PM 91.0 °F 88.9 °F 55.0 °F 29% 29.79 in 10.0 mi South 13.8 mph 21.9 mph N/A   Clear
3:53 PM 91.9 °F 89.5 °F 54.0 °F 27% 29.78 in 10.0 mi SE 15.0 mph 24.2 mph N/A   Clear
4:53 PM 91.0 °F 88.7 °F 54.0 °F 28% 29.78 in 10.0 mi SE 17.3 mph 23.0 mph N/A   Clear
5:53 PM 89.1 °F 86.7 °F 53.1 °F 29% 29.78 in 10.0 mi SE 16.1 mph 24.2 mph N/A   Clear
6:53 PM 86.0 °F - 51.1 °F 30% 29.78 in 10.0 mi SSE 11.5 mph - N/A   Clear
7:53 PM 80.1 °F 80.1 °F 55.0 °F 42% 29.79 in 10.0 mi SE 8.1 mph - N/A   Clear
8:53 PM 75.9 °F - 55.0 °F 48% 29.80 in 10.0 mi SE 3.5 mph - N/A   Clear
9:53 PM 73.9 °F - 54.0 °F 50% 29.81 in 10.0 mi SSE 4.6 mph - N/A   Clear
10:53 PM 73.0 °F - 52.0 °F 48% 29.82 in 10.0 mi SSE 5.8 mph - N/A   Clear
11:53 PM 72.0 °F - 54.0 °F 53% 29.83 in 10.0 mi SE 8.1 mph - N/A   Clear